| time (UTC) | temp F | wind direction | speed MPH | gust MPH | rain 1hr in | rain 24hr in | rain mn in | humidity % | barometer mb |
| 20260503002133 | 58 | 114 | 0.0 | 0.0 | 0.00 | 0.00 | 0.00 | 90 | 1013.8 |
| 20260503001634 | 58 | 114 | 0.0 | 0.0 | 0.00 | 0.00 | 0.00 | 90 | 1013.9 |
| 20260503001133 | 58 | 114 | 0.0 | 0.0 | 0.00 | 0.00 | 0.00 | 90 | 1013.9 |
| 20260503000632 | 58 | 114 | 0.0 | 0.0 | 0.00 | 0.00 | 0.00 | 90 | 1014.0 |
| 20260503000133 | 58 | 114 | 0.0 | 0.0 | 0.00 | 0.00 | 0.00 | 90 | 1014.1 |
| 20260502235753 | 58 | 114 | 0.0 | 0.0 | 0.00 | 0.00 | 0.00 | 90 | 1014.2 |
| 20260502235723 | 58 | 114 | 0.0 | 0.0 | 0.00 | 0.00 | 0.00 | 90 | 1014.1 |
| 20260502234632 | 57 | 114 | 0.0 | 0.0 | 0.00 | 0.00 | 0.00 | 89 | 1014.3 |
| 20260502234443 | 57 | 114 | 0.0 | 0.0 | 0.00 | 0.00 | 0.00 | 89 | 1014.4 |
| 20260502233632 | 57 | 114 | 0.0 | 0.0 | 0.00 | 0.00 | 0.00 | 89 | 1014.5 |
| 20260502233131 | 57 | 114 | 0.0 | 0.0 | 0.00 | 0.00 | 0.00 | 89 | 1014.5 |
| 20260502232631 | 57 | 114 | 0.0 | 0.0 | 0.00 | 0.00 | 0.00 | 89 | 1014.6 |
| 20260502232131 | 57 | 114 | 0.0 | 0.0 | 0.00 | 0.00 | 0.00 | 89 | 1014.6 |
| 20260502231816 | 57 | 114 | 0.0 | 0.0 | 0.00 | 0.00 | 0.00 | 88 | 1014.6 |
| 20260502231739 | 57 | 114 | 0.0 | 0.0 | 0.00 | 0.00 | 0.00 | 89 | 1014.6 |
| 20260502230630 | 57 | 114 | 0.0 | 0.0 | 0.00 | 0.00 | 0.00 | 88 | 1014.6 |
| 20260502230130 | 57 | 114 | 0.0 | 0.0 | 0.00 | 0.00 | 0.00 | 88 | 1014.7 |
| 20260502225631 | 57 | 114 | 0.0 | 0.0 | 0.00 | 0.00 | 0.00 | 88 | 1014.6 |
| 20260502225130 | 57 | 114 | 0.0 | 0.0 | 0.00 | 0.00 | 0.00 | 88 | 1014.6 |
| 20260502224631 | 57 | 114 | 0.0 | 0.0 | 0.00 | 0.00 | 0.00 | 87 | 1014.7 |
| 20260502224131 | 57 | 114 | 0.0 | 0.0 | 0.00 | 0.00 | 0.00 | 87 | 1014.8 |
| 20260502223631 | 57 | 114 | 0.0 | 0.0 | 0.00 | 0.00 | 0.00 | 86 | 1014.7 |
| 20260502223132 | 57 | 114 | 0.0 | 0.0 | 0.00 | 0.00 | 0.00 | 86 | 1014.7 |
| 20260502222630 | 57 | 114 | 0.0 | 0.0 | 0.00 | 0.00 | 0.00 | 86 | 1014.8 |
| 20260502222131 | 57 | 114 | 0.0 | 1.0 | 0.00 | 0.00 | 0.00 | 85 | 1014.8 |
| 20260502221630 | 58 | 114 | 0.0 | 1.0 | 0.00 | 0.00 | 0.00 | 85 | 1014.9 |
| 20260502221315 | 58 | 83 | 0.0 | 1.0 | 0.00 | 0.00 | 0.00 | 84 | 1014.7 |
| 20260502221235 | 58 | 114 | 0.0 | 1.0 | 0.00 | 0.00 | 0.00 | 85 | 1014.8 |
| 20260502220130 | 58 | 83 | 0.0 | 0.0 | 0.00 | 0.00 | 0.00 | 84 | 1014.7 |
| 20260502215632 | 58 | 83 | 0.0 | 0.0 | 0.00 | 0.00 | 0.00 | 84 | 1014.7 |
| 20260502215453 | 58 | 83 | 0.0 | 0.0 | 0.00 | 0.00 | 0.00 | 84 | 1014.6 |
| 20260502214628 | 58 | 83 | 0.0 | 1.0 | 0.00 | 0.00 | 0.00 | 83 | 1014.6 |
| 20260502214127 | 58 | 83 | 0.0 | 1.0 | 0.00 | 0.00 | 0.00 | 82 | 1014.7 |
| 20260502213629 | 59 | 83 | 0.0 | 1.0 | 0.00 | 0.00 | 0.00 | 82 | 1014.7 |
| 20260502213448 | 59 | 86 | 0.0 | 1.0 | 0.00 | 0.00 | 0.00 | 81 | 1014.7 |
| 20260502212629 | 59 | 86 | 0.0 | 1.0 | 0.00 | 0.00 | 0.00 | 80 | 1014.6 |
| 20260502212129 | 59 | 86 | 0.0 | 2.0 | 0.00 | 0.00 | 0.00 | 80 | 1014.5 |
| 20260502211628 | 59 | 73 | 1.0 | 2.0 | 0.00 | 0.00 | 0.00 | 80 | 1014.5 |
| 20260502211130 | 59 | 102 | 0.0 | 1.0 | 0.00 | 0.00 | 0.00 | 80 | 1014.5 |
| 20260502210632 | 59 | 102 | 0.0 | 1.0 | 0.00 | 0.00 | 0.00 | 80 | 1014.5 |
| 20260502210130 | 59 | 99 | 0.0 | 1.0 | 0.00 | 0.00 | 0.00 | 80 | 1014.6 |
| 20260502205628 | 59 | 96 | 0.0 | 1.0 | 0.00 | 0.00 | 0.00 | 80 | 1014.6 |
| 20260502205130 | 59 | 96 | 0.0 | 1.0 | 0.00 | 0.00 | 0.00 | 80 | 1014.7 |
| 20260502204628 | 59 | 96 | 0.0 | 1.0 | 0.00 | 0.00 | 0.00 | 79 | 1014.6 |
| 20260502204131 | 59 | 96 | 0.0 | 1.0 | 0.00 | 0.00 | 0.00 | 79 | 1014.5 |
| 20260502203953 | 59 | 96 | 0.0 | 0.0 | 0.00 | 0.00 | 0.00 | 78 | 1014.6 |
| 20260502203128 | 60 | 96 | 0.0 | 1.0 | 0.00 | 0.00 | 0.00 | 78 | 1014.5 |
| 20260502202629 | 60 | 96 | 0.0 | 1.0 | 0.00 | 0.00 | 0.00 | 78 | 1014.4 |
| 20260502202127 | 60 | 97 | 0.0 | 1.0 | 0.00 | 0.00 | 0.00 | 77 | 1014.4 |
| 20260502201630 | 60 | 97 | 0.0 | 1.0 | 0.00 | 0.00 | 0.00 | 77 | 1014.5 |
| 20260502201129 | 60 | 96 | 1.0 | 1.0 | 0.00 | 0.00 | 0.00 | 77 | 1014.5 |
| 20260502200628 | 60 | 83 | 0.0 | 1.0 | 0.00 | 0.00 | 0.00 | 77 | 1014.4 |
| 20260502200128 | 60 | 97 | 0.0 | 1.0 | 0.00 | 0.00 | 0.00 | 76 | 1014.5 |
| 20260502195628 | 60 | 90 | 0.0 | 3.0 | 0.00 | 0.00 | 0.00 | 76 | 1014.5 |
| 20260502195128 | 60 | 86 | 0.0 | 3.0 | 0.00 | 0.00 | 0.00 | 76 | 1014.5 |
| 20260502194630 | 61 | 87 | 1.0 | 2.0 | 0.00 | 0.00 | 0.00 | 75 | 1014.5 |
| 20260502194128 | 61 | 92 | 0.0 | 4.0 | 0.00 | 0.00 | 0.00 | 75 | 1014.4 |
| 20260502193627 | 61 | 106 | 1.0 | 4.0 | 0.00 | 0.00 | 0.00 | 75 | 1014.4 |
| 20260502193130 | 61 | 103 | 2.0 | 5.0 | 0.00 | 0.00 | 0.00 | 75 | 1014.4 |
| 20260502192627 | 61 | 97 | 2.0 | 5.0 | 0.00 | 0.00 | 0.00 | 74 | 1014.3 |
| 20260502192127 | 61 | 127 | 2.0 | 3.0 | 0.00 | 0.00 | 0.00 | 74 | 1014.3 |
| 20260502191951 | 61 | 103 | 1.0 | 3.0 | 0.00 | 0.00 | 0.00 | 74 | 1014.3 |
| 20260502191127 | 61 | 111 | 0.0 | 2.0 | 0.00 | 0.00 | 0.00 | 74 | 1014.5 |
| 20260502190627 | 62 | 111 | 0.0 | 2.0 | 0.00 | 0.00 | 0.00 | 74 | 1014.4 |
| 20260502190127 | 62 | 106 | 2.0 | 3.0 | 0.00 | 0.00 | 0.00 | 74 | 1014.4 |
| 20260502185957 | 62 | 100 | 1.0 | 4.0 | 0.00 | 0.00 | 0.00 | 73 | 1014.3 |
| 20260502185129 | 62 | 114 | 1.0 | 4.0 | 0.00 | 0.00 | 0.00 | 73 | 1014.2 |
| 20260502184628 | 62 | 93 | 3.0 | 5.0 | 0.00 | 0.00 | 0.00 | 73 | 1014.1 |
| 20260502184126 | 62 | 96 | 1.0 | 7.0 | 0.00 | 0.00 | 0.00 | 73 | 1014.2 |
| 20260502183625 | 62 | 85 | 4.0 | 7.0 | 0.00 | 0.00 | 0.00 | 72 | 1014.2 |
| 20260502183125 | 62 | 124 | 1.0 | 5.0 | 0.00 | 0.00 | 0.00 | 73 | 1014.2 |
| 20260502182626 | 62 | 85 | 2.0 | 4.0 | 0.00 | 0.00 | 0.00 | 73 | 1014.1 |
| 20260502182128 | 62 | 6 | 1.0 | 4.0 | 0.00 | 0.00 | 0.00 | 75 | 1014.2 |
| 20260502181625 | 63 | 128 | 1.0 | 13.0 | 0.00 | 0.00 | 0.00 | 73 | 1014.1 |
| 20260502181127 | 63 | 110 | 4.0 | 13.0 | 0.00 | 0.00 | 0.00 | 73 | 1013.9 |
| 20260502180625 | 63 | 110 | 6.0 | 13.0 | 0.00 | 0.00 | 0.00 | 73 | 1013.8 |
| 20260502180125 | 63 | 116 | 6.0 | 11.0 | 0.00 | 0.00 | 0.00 | 73 | 1013.8 |
| 20260502170124 | 64 | 117 | 9.0 | 20.0 | 0.00 | 0.00 | 0.00 | 73 | 1013.5 |
| 20260502164127 | 65 | 107 | 10.0 | 18.0 | 0.00 | 0.00 | 0.00 | 73 | 1013.7 |
| 20260502163624 | 65 | 100 | 9.0 | 19.0 | 0.00 | 0.00 | 0.00 | 72 | 1013.9 |
| 20260502163123 | 65 | 96 | 9.0 | 19.0 | 0.00 | 0.00 | 0.00 | 72 | 1013.8 |
| 20260502162622 | 66 | 94 | 10.0 | 16.0 | 0.00 | 0.00 | 0.00 | 72 | 1013.8 |
| 20260502162445 | 66 | 116 | 11.0 | 19.0 | 0.00 | 0.00 | 0.00 | 72 | 1013.8 |
| 20260502161954 | 66 | 97 | 11.0 | 23.0 | 0.00 | 0.00 | 0.00 | 71 | 1013.7 |
| 20260502161123 | 66 | 94 | 14.0 | 23.0 | 0.00 | 0.00 | 0.00 | 70 | 1013.7 |
| 20260502160623 | 67 | 96 | 9.0 | 19.0 | 0.00 | 0.00 | 0.00 | 71 | 1013.7 |
| 20260502160122 | 67 | 99 | 10.0 | 20.0 | 0.00 | 0.00 | 0.00 | 70 | 1013.7 |
| 20260502152122 | 67 | 109 | 9.0 | 18.0 | 0.00 | 0.00 | 0.00 | 67 | 1014.2 |
| 20260502151621 | 67 | 75 | 10.0 | 18.0 | 0.00 | 0.00 | 0.00 | 68 | 1014.2 |
| 20260502151121 | 68 | 102 | 11.0 | 18.0 | 0.00 | 0.00 | 0.00 | 67 | 1014.4 |
| 20260502150936 | 68 | 104 | 10.0 | 17.0 | 0.00 | 0.00 | 0.00 | 66 | 1014.5 |
| 20260502150119 | 68 | 85 | 9.0 | 15.0 | 0.00 | 0.00 | 0.00 | 66 | 1014.5 |
| 20260502140121 | 70 | 121 | 10.0 | 18.0 | 0.00 | 0.00 | 0.00 | 63 | 1015.3 |
| 20260502130617 | 69 | 103 | 8.0 | 15.0 | 0.00 | 0.00 | 0.00 | 64 | 1015.8 |
| 20260502130118 | 69 | 113 | 9.0 | 18.0 | 0.00 | 0.00 | 0.00 | 64 | 1015.8 |
| 20260502123616 | 69 | 107 | 8.0 | 17.0 | 0.00 | 0.00 | 0.00 | 65 | 1016.1 |
| 20260502123117 | 69 | 80 | 7.0 | 17.0 | 0.00 | 0.00 | 0.00 | 65 | 1016.1 |
| 20260502122615 | 69 | 127 | 9.0 | 16.0 | 0.00 | 0.00 | 0.00 | 65 | 1016.2 |
| 20260502122118 | 69 | 94 | 9.0 | 16.0 | 0.00 | 0.00 | 0.00 | 65 | 1016.3 |
| 20260502121923 | 69 | 96 | 9.0 | 14.0 | 0.00 | 0.00 | 0.00 | 64 | 1016.2 |
| 20260502121115 | 69 | 96 | 6.0 | 18.0 | 0.00 | 0.00 | 0.00 | 65 | 1016.2 |
| 20260502120616 | 68 | 85 | 10.0 | 20.0 | 0.00 | 0.00 | 0.00 | 64 | 1016.2 |
| 20260502120116 | 69 | 102 | 14.0 | 20.0 | 0.00 | 0.00 | 0.00 | 63 | 1016.2 |
| 20260502115615 | 69 | 121 | 9.0 | 17.0 | 0.00 | 0.00 | 0.00 | 64 | 1016.2 |
| 20260502115115 | 69 | 69 | 10.0 | 16.0 | 0.00 | 0.00 | 0.00 | 65 | 1016.4 |
| 20260502114617 | 69 | 79 | 7.0 | 18.0 | 0.00 | 0.00 | 0.00 | 65 | 1016.5 |
| 20260502114115 | 69 | 97 | 7.0 | 18.0 | 0.00 | 0.00 | 0.00 | 65 | 1016.7 |
| 20260502113614 | 69 | 127 | 10.0 | 19.0 | 0.00 | 0.00 | 0.00 | 65 | 1016.8 |
| 20260502113242 | 69 | 99 | 9.0 | 17.0 | 0.00 | 0.00 | 0.00 | 65 | 1016.8 |
| 20260502113212 | 69 | 72 | 10.0 | 19.0 | 0.00 | 0.00 | 0.00 | 65 | 1016.8 |
| 20260502112115 | 69 | 117 | 11.0 | 17.0 | 0.00 | 0.00 | 0.00 | 65 | 1017.0 |
| 20260502111921 | 69 | 109 | 10.0 | 16.0 | 0.00 | 0.00 | 0.00 | 65 | 1017.0 |
| 20260502111114 | 69 | 107 | 8.0 | 19.0 | 0.00 | 0.00 | 0.00 | 68 | 1017.0 |
| 20260502110614 | 69 | 104 | 10.0 | 19.0 | 0.00 | 0.00 | 0.00 | 66 | 1017.0 |
| 20260502110117 | 69 | 85 | 10.0 | 17.0 | 0.00 | 0.00 | 0.00 | 67 | 1017.1 |
| 20260502105613 | 69 | 111 | 9.0 | 16.0 | 0.00 | 0.00 | 0.00 | 67 | 1017.2 |
| 20260502105422 | 68 | 99 | 9.0 | 16.0 | 0.00 | 0.00 | 0.00 | 69 | 1017.3 |
| 20260502104614 | 68 | 124 | 9.0 | 16.0 | 0.00 | 0.00 | 0.00 | 69 | 1017.3 |
| 20260502104113 | 67 | 37 | 8.0 | 18.0 | 0.00 | 0.00 | 0.00 | 70 | 1017.5 |
| 20260502103614 | 67 | 113 | 7.0 | 18.0 | 0.00 | 0.00 | 0.00 | 71 | 1017.6 |
| 20260502103113 | 67 | 90 | 10.0 | 15.0 | 0.00 | 0.00 | 0.00 | 69 | 1017.6 |
| 20260502102934 | 67 | 125 | 9.0 | 15.0 | 0.00 | 0.00 | 0.00 | 69 | 1017.5 |
| 20260502102115 | 67 | 107 | 10.0 | 15.0 | 0.00 | 0.00 | 0.00 | 69 | 1017.5 |
| 20260502101614 | 67 | 125 | 9.0 | 17.0 | 0.00 | 0.00 | 0.00 | 69 | 1017.5 |
| 20260502101113 | 67 | 110 | 8.0 | 19.0 | 0.00 | 0.00 | 0.00 | 68 | 1017.5 |
| 20260502100613 | 67 | 121 | 11.0 | 19.0 | 0.00 | 0.00 | 0.00 | 67 | 1017.5 |
| 20260502100209 | 68 | 92 | 10.0 | 17.0 | 0.00 | 0.00 | 0.00 | 69 | 1017.6 |
| 20260502091112 | 65 | 114 | 13.0 | 22.0 | 0.00 | 0.00 | 0.00 | 71 | 1017.8 |
| 20260502090611 | 66 | 124 | 9.0 | 22.0 | 0.00 | 0.00 | 0.00 | 74 | 1017.8 |
| 20260502090123 | 65 | 120 | 11.0 | 21.0 | 0.00 | 0.00 | 0.00 | 72 | 1017.7 |
| 20260502080110 | 63 | 79 | 8.0 | 19.0 | 0.00 | 0.00 | 0.00 | 77 | 1017.8 |
| 20260502071108 | 61 | 106 | 5.0 | 12.0 | 0.00 | 0.00 | 0.00 | 82 | 1018.1 |
| 20260502070610 | 61 | 106 | 5.0 | 13.0 | 0.00 | 0.00 | 0.00 | 83 | 1017.9 |
| 20260502070110 | 60 | 94 | 7.0 | 13.0 | 0.00 | 0.00 | 0.00 | 83 | 1018.0 |
| 20260502065609 | 60 | 109 | 7.0 | 12.0 | 0.00 | 0.00 | 0.00 | 83 | 1017.8 |
| 20260502065109 | 60 | 106 | 6.0 | 12.0 | 0.00 | 0.00 | 0.00 | 83 | 1017.9 |
| 20260502064621 | 60 | 92 | 6.0 | 10.0 | 0.00 | 0.00 | 0.00 | 84 | 1017.9 |
| 20260502064108 | 60 | 120 | 5.0 | 10.0 | 0.00 | 0.00 | 0.00 | 84 | 1017.9 |
| 20260502063607 | 59 | 96 | 4.0 | 11.0 | 0.00 | 0.00 | 0.00 | 86 | 1017.9 |
| 20260502063108 | 59 | 109 | 5.0 | 11.0 | 0.00 | 0.00 | 0.00 | 86 | 1017.9 |
| 20260502062607 | 58 | 111 | 5.0 | 10.0 | 0.00 | 0.00 | 0.00 | 87 | 1017.8 |
| 20260502062235 | 58 | 114 | 4.0 | 9.0 | 0.00 | 0.00 | 0.00 | 88 | 1017.7 |
| 20260502062205 | 58 | 113 | 4.0 | 10.0 | 0.00 | 0.00 | 0.00 | 87 | 1017.8 |
| 20260502061119 | 57 | 120 | 4.0 | 9.0 | 0.00 | 0.00 | 0.00 | 88 | 1017.7 |
| 20260502060610 | 57 | 93 | 3.0 | 6.0 | 0.00 | 0.00 | 0.00 | 89 | 1017.8 |
| 20260502060107 | 57 | 111 | 4.0 | 6.0 | 0.00 | 0.00 | 0.00 | 89 | 1017.7 |
| 20260502055608 | 56 | 107 | 3.0 | 5.0 | 0.00 | 0.00 | 0.00 | 89 | 1017.8 |
| 20260502055107 | 56 | 100 | 4.0 | 9.0 | 0.00 | 0.00 | 0.00 | 89 | 1017.8 |
| 20260502054607 | 56 | 107 | 4.0 | 9.0 | 0.00 | 0.00 | 0.00 | 89 | 1017.8 |
| 20260502054106 | 56 | 110 | 4.0 | 7.0 | 0.00 | 0.00 | 0.00 | 89 | 1017.8 |
| 20260502053607 | 56 | 103 | 3.0 | 7.0 | 0.00 | 0.00 | 0.00 | 89 | 1017.8 |
| 20260502053107 | 56 | 109 | 4.0 | 7.0 | 0.00 | 0.00 | 0.00 | 89 | 1017.8 |
| 20260502052605 | 56 | 97 | 3.0 | 6.0 | 0.00 | 0.00 | 0.00 | 89 | 1017.8 |
| 20260502052413 | 56 | 120 | 2.0 | 6.0 | 0.00 | 0.00 | 0.00 | 89 | 1017.8 |
| 20260502051606 | 56 | 99 | 2.0 | 7.0 | 0.00 | 0.00 | 0.00 | 89 | 1017.8 |
| 20260502051119 | 56 | 82 | 4.0 | 7.0 | 0.00 | 0.00 | 0.00 | 90 | 1017.8 |
| 20260502050605 | 56 | 124 | 2.0 | 4.0 | 0.00 | 0.00 | 0.00 | 89 | 1017.7 |
| 20260502050106 | 56 | 124 | 2.0 | 6.0 | 0.00 | 0.00 | 0.00 | 90 | 1017.7 |
| 20260502045605 | 56 | 117 | 2.0 | 6.0 | 0.00 | 0.00 | 0.00 | 90 | 1017.7 |
| 20260502045105 | 56 | 86 | 3.0 | 6.0 | 0.00 | 0.00 | 0.00 | 90 | 1017.7 |
| 20260502044606 | 56 | 96 | 3.0 | 5.0 | 0.00 | 0.00 | 0.00 | 90 | 1017.7 |
| 20260502044105 | 56 | 106 | 2.0 | 5.0 | 0.00 | 0.00 | 0.00 | 89 | 1017.7 |
| 20260502043619 | 56 | 90 | 4.0 | 11.0 | 0.00 | 0.00 | 0.00 | 89 | 1017.8 |
| 20260502043105 | 56 | 102 | 3.0 | 11.0 | 0.00 | 0.00 | 0.00 | 89 | 1017.7 |
| 20260502042604 | 56 | 121 | 5.0 | 9.0 | 0.00 | 0.00 | 0.00 | 90 | 1017.6 |
| 20260502042415 | 56 | 94 | 4.0 | 9.0 | 0.00 | 0.00 | 0.00 | 90 | 1017.6 |
| 20260502041912 | 56 | 107 | 4.0 | 10.0 | 0.00 | 0.00 | 0.00 | 90 | 1017.6 |
| 20260502041120 | 56 | 96 | 5.0 | 10.0 | 0.00 | 0.00 | 0.00 | 90 | 1017.7 |
| 20260502040603 | 56 | 106 | 4.0 | 6.0 | 0.00 | 0.00 | 0.00 | 89 | 1017.7 |
| 20260502040118 | 56 | 94 | 3.0 | 7.0 | 0.00 | 0.00 | 0.00 | 89 | 1017.7 |
| 20260502035605 | 56 | 111 | 4.0 | 7.0 | 0.00 | 0.00 | 0.00 | 89 | 1017.7 |
| 20260502035105 | 56 | 82 | 4.0 | 9.0 | 0.00 | 0.00 | 0.00 | 89 | 1017.9 |
| 20260502034603 | 56 | 92 | 5.0 | 13.0 | 0.00 | 0.00 | 0.00 | 89 | 1017.8 |
| 20260502034104 | 56 | 118 | 6.0 | 13.0 | 0.00 | 0.00 | 0.00 | 89 | 1017.8 |
| 20260502033603 | 56 | 109 | 5.0 | 9.0 | 0.00 | 0.00 | 0.00 | 89 | 1017.8 |
| 20260502033412 | 56 | 106 | 5.0 | 9.0 | 0.00 | 0.00 | 0.00 | 89 | 1017.9 |
| 20260502032603 | 56 | 121 | 3.0 | 9.0 | 0.00 | 0.00 | 0.00 | 89 | 1018.0 |
| 20260502032103 | 56 | 124 | 3.0 | 10.0 | 0.00 | 0.00 | 0.00 | 89 | 1017.9 |
| 20260502031605 | 56 | 107 | 6.0 | 10.0 | 0.00 | 0.00 | 0.00 | 89 | 1018.0 |
| 20260502031409 | 56 | 125 | 4.0 | 9.0 | 0.00 | 0.00 | 0.00 | 88 | 1018.0 |
| 20260502030739 | 56 | 97 | 3.0 | 7.0 | 0.00 | 0.00 | 0.00 | 88 | 1018.1 |
| 20260502030707 | 56 | 121 | 4.0 | 9.0 | 0.00 | 0.00 | 0.00 | 88 | 1018.1 |
| 20260502025605 | 56 | 73 | 4.0 | 11.0 | 0.00 | 0.00 | 0.00 | 88 | 1018.1 |
| 20260502025103 | 56 | 78 | 5.0 | 11.0 | 0.00 | 0.00 | 0.00 | 88 | 1018.1 |
| 20260502024603 | 56 | 93 | 4.0 | 12.0 | 0.00 | 0.00 | 0.00 | 88 | 1018.1 |
| 20260502024103 | 56 | 92 | 5.0 | 12.0 | 0.00 | 0.00 | 0.00 | 88 | 1018.1 |
| 20260502023601 | 56 | 109 | 5.0 | 9.0 | 0.00 | 0.00 | 0.00 | 88 | 1018.1 |
| 20260502023104 | 56 | 96 | 5.0 | 12.0 | 0.00 | 0.00 | 0.00 | 87 | 1018.0 |
| 20260502022602 | 56 | 102 | 6.0 | 12.0 | 0.00 | 0.00 | 0.00 | 87 | 1018.1 |
| 20260502022410 | 56 | 99 | 7.0 | 13.0 | 0.00 | 0.00 | 0.00 | 87 | 1018.2 |
| 20260502021602 | 56 | 120 | 9.0 | 13.0 | 0.00 | 0.00 | 0.00 | 87 | 1018.2 |
| 20260502021411 | 56 | 87 | 6.0 | 12.0 | 0.00 | 0.00 | 0.00 | 87 | 1018.3 |
| 20260502020603 | 56 | 113 | 4.0 | 11.0 | 0.00 | 0.00 | 0.00 | 87 | 1018.4 |
| 20260502015601 | 56 | 100 | 5.0 | 14.0 | 0.00 | 0.00 | 0.00 | 86 | 1018.5 |
| 20260502015101 | 56 | 104 | 7.0 | 14.0 | 0.00 | 0.00 | 0.00 | 87 | 1018.4 |
| 20260502014603 | 56 | 113 | 5.0 | 9.0 | 0.00 | 0.00 | 0.00 | 87 | 1018.4 |
| 20260502014101 | 56 | 110 | 4.0 | 9.0 | 0.00 | 0.00 | 0.00 | 87 | 1018.5 |
| 20260502013602 | 56 | 120 | 5.0 | 9.0 | 0.00 | 0.00 | 0.00 | 87 | 1018.5 |
| 20260502013101 | 56 | 102 | 4.0 | 13.0 | 0.00 | 0.00 | 0.00 | 86 | 1018.6 |
| 20260502012600 | 56 | 92 | 4.0 | 13.0 | 0.00 | 0.00 | 0.00 | 86 | 1018.6 |
| 20260502012100 | 56 | 109 | 6.0 | 12.0 | 0.00 | 0.00 | 0.00 | 86 | 1018.6 |
| 20260502011559 | 56 | 111 | 6.0 | 11.0 | 0.00 | 0.00 | 0.00 | 86 | 1018.7 |
| 20260502011102 | 56 | 116 | 6.0 | 12.0 | 0.00 | 0.00 | 0.00 | 85 | 1018.8 |
| 20260502010600 | 56 | 117 | 7.0 | 12.0 | 0.00 | 0.00 | 0.00 | 85 | 1018.8 |
| 20260502010113 | 56 | 117 | 6.0 | 11.0 | 0.00 | 0.00 | 0.00 | 85 | 1018.9 |
| 20260502005600 | 56 | 106 | 4.0 | 11.0 | 0.00 | 0.00 | 0.00 | 84 | 1019.0 |
| 20260502005101 | 56 | 99 | 5.0 | 11.0 | 0.00 | 0.00 | 0.00 | 84 | 1019.0 |
| 20260502004601 | 56 | 97 | 4.0 | 11.0 | 0.00 | 0.00 | 0.00 | 84 | 1019.1 |
| 20260502004410 | 56 | 120 | 4.0 | 11.0 | 0.00 | 0.00 | 0.00 | 84 | 1019.2 |
| 20260502003600 | 56 | 110 | 4.0 | 12.0 | 0.00 | 0.00 | 0.00 | 84 | 1019.2 |
| 20260502003100 | 56 | 116 | 3.0 | 13.0 | 0.00 | 0.00 | 0.00 | 84 | 1019.3 |
| 20260502002600 | 56 | 96 | 4.0 | 13.0 | 0.00 | 0.00 | 0.00 | 84 | 1019.3 |